Weather History for Lugano, Switzerland

Change the Weather History Date:

Saturday, August 10, 2013

  Actual Average Record
Temperature  
Mean Temperature 76 °F -  
Max Temperature 87 °F 73 °F - ()
Min Temperature 64 °F 58 °F - ()
Cooling Degree Days 12    
Growing Degree Days 26 (Base 50)    
Moisture  
Dew Point 47 °F    
Average Humidity 35    
Maximum Humidity 68    
Minimum Humidity 13    
Precipitation  
Precipitation 0.00 in 0.22 in - ()
Sea Level Pressure  
Sea Level Pressure 29.99 in    
Wind  
Wind Speed 9 mph ()    
Max Wind Speed 18 mph    
Max Gust Speed 23 mph    
T = Trace of Precipitation, MM = Missing Value Source: Averaged Metar Reports

Daily Weather History Graph

Daily Weather History Graph

Search for Another Location

Airport:

Trip Planner

Search our weather history database for the weather conditions in past years. The results will help you decide how hot, cold, wet, or windy it might be!

Date:

Astronomy

Aug. 10, 2013 Rise Set
Actual Time 6:17 AM CEST 8:40 PM CEST
Civil Twilight 5:44 AM CEST 9:14 PM CEST
Nautical Twilight 5:02 AM CEST 9:55 PM CEST
Astronomical Twilight 4:15 AM CEST 10:42 PM CEST
Moon 10:02 AM CEST (8/10) 9:56 PM CEST (8/10)
Length of Visible Light 15h 29m
Length of Day
14h 23m
Waxing Crescent, 12% of the Moon is Illuminated
Aug 10
Waxing Crescent
Aug 14
First Quarter
Aug 21
Full
Aug 28
Last Quarter
Sep 5
New

Hourly Weather History & Observations

Time (CEST) Temp. Dew Point Humidity Pressure Visibility Wind Dir Wind Speed Gust Speed Precip Events Conditions
12:00 AM 76 °F 44 °F 21% 29.97 in - North 12.7 mph - -  
12:20 AM 68.0 °F 50.0 °F 52% 30.01 in - Variable 2.3 mph - N/A   Clear
12:50 AM 66.2 °F 50.0 °F 56% 30.01 in - Variable 2.3 mph - N/A   Clear
1:00 AM 74 °F 43 °F 22% 29.98 in - North 11.5 mph - -  
1:20 AM 66.2 °F 50.0 °F 56% 30.01 in - North 5.8 mph - N/A   Clear
1:50 AM 68.0 °F 48.2 °F 49% 30.01 in - NNE 4.6 mph - N/A   Clear
2:20 AM 66.2 °F 46.4 °F 49% 30.01 in - NNE 4.6 mph - N/A   Clear
2:50 AM 66.2 °F 46.4 °F 49% 30.01 in - Variable 3.5 mph - N/A   Clear
3:00 AM 73 °F 38 °F 17% 29.97 in - North 18.4 mph - -  
3:20 AM 66.2 °F 41.0 °F 40% 30.01 in - North 8.1 mph - N/A   Clear
3:50 AM 69.8 °F 41.0 °F 35% 30.01 in - North 11.5 mph - N/A   Clear
4:00 AM 73 °F 38 °F 17% 29.96 in - North 17.3 mph - -  
4:20 AM 69.8 °F 41.0 °F 35% 30.01 in - NNW 15.0 mph - N/A   Clear
4:50 AM 69.8 °F 41.0 °F 35% 30.01 in - North 10.4 mph - N/A   Clear
5:20 AM 69.8 °F 41.0 °F 35% 30.01 in - North 11.5 mph - N/A   Clear
5:50 AM 69.8 °F 41.0 °F 35% 30.01 in - North 8.1 mph - N/A   Clear
6:00 AM 72 °F 39 °F 20% 29.96 in - North 15.0 mph - -  
6:20 AM 68.0 °F 42.8 °F 40% 30.01 in - Variable 4.6 mph 17.3 mph N/A   Clear
6:50 AM 69.8 °F 42.8 °F 38% 30.01 in - North 11.5 mph - N/A   Clear
7:00 AM 71 °F 41 °F 23% 29.98 in - North 8.1 mph - -  
7:20 AM 71.6 °F 41.0 °F 33% 30.01 in - NNW 11.5 mph - N/A   Clear
7:50 AM 69.8 °F 42.8 °F 38% 30.01 in - North 10.4 mph 23.0 mph N/A   Clear
8:20 AM 71.6 °F 42.8 °F 35% 30.01 in - North 16.1 mph - N/A   Clear
8:50 AM 73.4 °F 46.4 °F 38% 30.01 in - North 12.7 mph - N/A   Clear
9:00 AM 72 °F 51 °F 36% 29.99 in - East 3.5 mph - -  
9:20 AM 75.2 °F 46.4 °F 36% 30.01 in - North 16.1 mph - N/A   Clear
9:50 AM 75.2 °F 46.4 °F 36% 30.01 in - North 16.1 mph - N/A   Clear
10:00 AM 78 °F 42 °F 17% 29.98 in - NNE 8.1 mph - -  
10:20 AM 77.0 °F 44.6 °F 32% 30.01 in - North 15.0 mph - N/A   Clear
10:50 AM 78.8 °F 46.4 °F 32% 30.01 in - North 12.7 mph - N/A   Clear
11:20 AM 80.6 °F 48.2 °F 32% 30.01 in - North 16.1 mph - N/A   Clear
11:50 AM 80.6 °F 46.4 °F 30% 30.01 in - North 16.1 mph - N/A   Clear
12:00 PM 83 °F 46 °F 17% 29.96 in - North 13.8 mph - -  
12:20 PM 80.6 °F 48.2 °F 32% 30.01 in - North 16.1 mph - N/A   Clear
12:50 PM 82.4 °F 46.4 °F 28% 30.01 in - North 16.1 mph - N/A   Clear
1:00 PM 85 °F 44 °F 15% 29.95 in - North 10.4 mph - -  
1:20 PM 82.4 °F 51.8 °F 35% 29.98 in - North 13.8 mph - N/A   Clear
1:50 PM 84.2 °F 50.0 °F 30% 29.98 in - North 12.7 mph - N/A   Clear
2:20 PM 84.2 °F 46.4 °F 27% 29.98 in - NNW 15.0 mph - N/A   Clear
2:50 PM 84.2 °F 51.8 °F 33% 29.98 in - North 10.4 mph - N/A   Clear
3:00 PM 86 °F 43 °F 13% 29.93 in - NNW 3.5 mph - -  
3:20 PM 84.2 °F 50.0 °F 30% 29.98 in - North 12.7 mph - N/A   Clear
3:50 PM 84.2 °F 50.0 °F 30% 29.98 in - North 13.8 mph - N/A   Clear
4:00 PM 87 °F 45 °F 14% 29.92 in - NW 10.4 mph - -  
4:20 PM 84.2 °F 50.0 °F 30% 29.98 in - North 11.5 mph - N/A   Clear
4:50 PM 84.2 °F 50.0 °F 30% 29.98 in - North 10.4 mph - N/A   Clear
5:20 PM 86.0 °F 50.0 °F 29% 29.98 in - NNW 9.2 mph - N/A   Clear
5:50 PM 84.2 °F 50.0 °F 30% 29.98 in - NNW 9.2 mph - N/A   Clear
6:00 PM 86 °F 45 °F 14% 29.91 in - North 5.8 mph - -  
6:20 PM 84.2 °F 50.0 °F 30% 29.95 in - NW 8.1 mph - N/A   Clear
6:50 PM 82.4 °F 50.0 °F 32% 29.95 in - NW 8.1 mph - N/A   Clear
7:00 PM 83 °F 49 °F 20% 29.92 in - North 8.1 mph - -  
7:20 PM 80.6 °F 51.8 °F 37% 29.95 in - NNW 8.1 mph - N/A   Clear
7:50 PM 77.0 °F 50.0 °F 39% 29.98 in - Variable 2.3 mph - N/A   Clear
8:20 PM 75.2 °F 53.6 °F 47% 29.98 in - Variable 2.3 mph - N/A   Clear
8:50 PM 73.4 °F 53.6 °F 50% 30.01 in - Variable 1.2 mph - N/A   Clear
9:00 PM 78 °F 49 °F 25% 29.96 in - WNW 2.3 mph - -  
9:20 PM 69.8 °F 55.4 °F 60% 30.01 in - Variable 2.3 mph - N/A   Clear
9:50 PM 69.8 °F 55.4 °F 60% 30.01 in - Variable 1.2 mph - N/A   Clear
10:20 PM 68.0 °F 53.6 °F 60% 30.04 in - Variable 2.3 mph - N/A   Clear
10:50 PM 66.2 °F 55.4 °F 68% 30.04 in - Variable 1.2 mph - N/A   Clear
11:20 PM 66.2 °F 55.4 °F 68% 30.04 in - Variable 1.2 mph - N/A   Clear
11:50 PM 64.4 °F 53.6 °F 68% 30.04 in - Variable 1.2 mph - N/A   Clear